Back to catalog

BEIDOU 3M6

AliveNavigationMEO
NORAD 43208·PAYLOAD·🇨🇳 China

Launched Feb 12, 2018 from Xichang Satellite Launch Center

Loading…

Next Passes (next 24 hours)

TLE

FreshSource: CelesTrak SupGP

Epoch: Sep 14, 2026, 00:00 UTC

1 43208C 18018B   26257.00000000  .00000000  00000+0  00000+0 0  2572
2 43208  56.7323  60.2287 0005246 344.4657 105.7273  1.86231288    15

Track BEIDOU 3M6 in real time with AllMySat

Download on the App Store